Year,Month,Day,Hour,Minute,Value (Times are PST for windgust in km/hr)
2008,02,05,00,00,0.00
2008,02,05,00,01,4.80
2008,02,05,00,02,8.10
2008,02,05,00,03,4.80
2008,02,05,00,04,1.60
2008,02,05,00,05,1.60
2008,02,05,00,06,1.60
2008,02,05,00,07,6.40
2008,02,05,00,08,4.80
2008,02,05,00,09,3.20
2008,02,05,00,10,3.20
2008,02,05,00,11,3.20
2008,02,05,00,12,3.20
2008,02,05,00,13,4.80
2008,02,05,00,14,3.20
2008,02,05,00,15,0.00
2008,02,05,00,16,1.60
2008,02,05,00,17,4.80
2008,02,05,00,18,3.20
2008,02,05,00,19,4.80
2008,02,05,00,20,4.80
2008,02,05,00,21,4.80
2008,02,05,00,22,4.80
2008,02,05,00,23,0.00
2008,02,05,00,24,3.20
2008,02,05,00,25,3.20
2008,02,05,00,26,4.80
2008,02,05,00,27,8.10
2008,02,05,00,28,4.80
2008,02,05,00,29,4.80
2008,02,05,00,30,4.80
2008,02,05,00,31,4.80
2008,02,05,00,32,3.20
2008,02,05,00,33,3.20
2008,02,05,00,34,3.20
2008,02,05,00,35,4.80
2008,02,05,00,36,1.60
2008,02,05,00,37,8.10
2008,02,05,00,38,9.60
2008,02,05,00,39,4.80
2008,02,05,00,40,4.80
2008,02,05,00,41,3.20
2008,02,05,00,42,3.20
2008,02,05,00,43,3.20
2008,02,05,00,44,3.20
2008,02,05,00,45,4.80
2008,02,05,00,46,4.80
2008,02,05,00,47,4.80
2008,02,05,00,48,6.40
2008,02,05,00,49,4.80
2008,02,05,00,50,4.80
2008,02,05,00,51,4.80
2008,02,05,00,52,4.80
2008,02,05,00,53,4.80
2008,02,05,00,54,6.40
2008,02,05,00,55,8.10
2008,02,05,00,56,4.80
2008,02,05,00,57,3.20
2008,02,05,00,58,1.60
2008,02,05,00,59,1.60
2008,02,05,01,00,3.20
2008,02,05,01,01,6.40
2008,02,05,01,02,6.40
2008,02,05,01,03,1.60
2008,02,05,01,04,1.60
2008,02,05,01,05,3.20
2008,02,05,01,06,0.00
2008,02,05,01,07,4.80
2008,02,05,01,08,4.80
2008,02,05,01,09,4.80
2008,02,05,01,10,3.20
2008,02,05,01,11,4.80
2008,02,05,01,12,3.20
2008,02,05,01,13,1.60
2008,02,05,01,14,1.60
2008,02,05,01,15,6.40
2008,02,05,01,16,6.40
2008,02,05,01,17,4.80
2008,02,05,01,18,8.10
2008,02,05,01,19,4.80
2008,02,05,01,20,4.80
2008,02,05,01,21,8.10
2008,02,05,01,22,6.40
2008,02,05,01,23,4.80
2008,02,05,01,24,3.20
2008,02,05,01,25,4.80
2008,02,05,01,26,6.40
2008,02,05,01,27,9.60
2008,02,05,01,28,6.40
2008,02,05,01,29,3.20
2008,02,05,01,30,6.40
2008,02,05,01,31,8.10
2008,02,05,01,32,6.40
2008,02,05,01,33,4.80
2008,02,05,01,34,4.80
2008,02,05,01,35,4.80
2008,02,05,01,36,3.20
2008,02,05,01,37,3.20
2008,02,05,01,38,6.40
2008,02,05,01,39,4.80
2008,02,05,01,40,6.40
2008,02,05,01,41,1.60
2008,02,05,01,42,4.80
2008,02,05,01,43,8.10
2008,02,05,01,44,4.80
2008,02,05,01,45,3.20
2008,02,05,01,46,9.60
2008,02,05,01,47,8.10
2008,02,05,01,48,9.60
2008,02,05,01,49,4.80
2008,02,05,01,50,4.80
2008,02,05,01,51,9.60
2008,02,05,01,52,6.40
2008,02,05,01,53,6.40
2008,02,05,01,54,6.40
2008,02,05,01,55,4.80
2008,02,05,01,56,3.20
2008,02,05,01,57,3.20
2008,02,05,01,58,3.20
2008,02,05,01,59,8.10
2008,02,05,02,00,6.40
2008,02,05,02,01,6.40
2008,02,05,02,02,9.60
2008,02,05,02,03,6.40
2008,02,05,02,04,4.80
2008,02,05,02,05,3.20
2008,02,05,02,06,3.20
2008,02,05,02,07,8.10
2008,02,05,02,08,3.20
2008,02,05,02,09,6.40
2008,02,05,02,10,6.40
2008,02,05,02,11,8.10
2008,02,05,02,12,4.80
2008,02,05,02,13,4.80
2008,02,05,02,14,3.20
2008,02,05,02,15,4.80
2008,02,05,02,16,6.40
2008,02,05,02,17,4.80
2008,02,05,02,18,3.20
2008,02,05,02,19,6.40
2008,02,05,02,20,8.10
2008,02,05,02,21,4.80
2008,02,05,02,22,4.80
2008,02,05,02,23,6.40
2008,02,05,02,24,8.10
2008,02,05,02,25,3.20
2008,02,05,02,26,9.60
2008,02,05,02,27,9.60
2008,02,05,02,28,8.10
2008,02,05,02,29,6.40
2008,02,05,02,30,4.80
2008,02,05,02,31,4.80
2008,02,05,02,32,3.20
2008,02,05,02,33,4.80
2008,02,05,02,34,3.20
2008,02,05,02,35,3.20
2008,02,05,02,36,6.40
2008,02,05,02,37,4.80
2008,02,05,02,38,3.20
2008,02,05,02,39,4.80
2008,02,05,02,40,6.40
2008,02,05,02,41,9.60
2008,02,05,02,42,4.80
2008,02,05,02,43,6.40
2008,02,05,02,44,4.80
2008,02,05,02,45,6.40
2008,02,05,02,46,4.80
2008,02,05,02,47,4.80
2008,02,05,02,48,4.80
2008,02,05,02,49,4.80
2008,02,05,02,50,3.20
2008,02,05,02,51,3.20
2008,02,05,02,52,3.20
2008,02,05,02,53,4.80
2008,02,05,02,54,6.40
2008,02,05,02,55,6.40
2008,02,05,02,56,4.80
2008,02,05,02,57,4.80
2008,02,05,02,58,1.60
2008,02,05,02,59,3.20
2008,02,05,03,00,4.80
2008,02,05,03,01,4.80
2008,02,05,03,02,4.80
2008,02,05,03,03,6.40
2008,02,05,03,04,6.40
2008,02,05,03,05,8.10
2008,02,05,03,06,6.40
2008,02,05,03,07,6.40
2008,02,05,03,08,4.80
2008,02,05,03,09,3.20
2008,02,05,03,10,3.20
2008,02,05,03,11,4.80
2008,02,05,03,12,3.20
2008,02,05,03,13,4.80
2008,02,05,03,14,6.40
2008,02,05,03,15,1.60
2008,02,05,03,16,3.20
2008,02,05,03,17,8.10
2008,02,05,03,18,6.40
2008,02,05,03,19,6.40
2008,02,05,03,20,4.80
2008,02,05,03,21,3.20
2008,02,05,03,22,1.60
2008,02,05,03,23,3.20
2008,02,05,03,24,4.80
2008,02,05,03,25,6.40
2008,02,05,03,26,6.40
2008,02,05,03,27,6.40
2008,02,05,03,28,6.40
2008,02,05,03,29,4.80
2008,02,05,03,30,6.40
2008,02,05,03,31,6.40
2008,02,05,03,32,4.80
2008,02,05,03,33,6.40
2008,02,05,03,34,6.40
2008,02,05,03,35,4.80
2008,02,05,03,36,4.80
2008,02,05,03,37,1.60
2008,02,05,03,38,4.80
2008,02,05,03,39,4.80
2008,02,05,03,40,9.60
2008,02,05,03,41,8.10
2008,02,05,03,42,9.60
2008,02,05,03,43,6.40
2008,02,05,03,44,6.40
2008,02,05,03,45,4.80
2008,02,05,03,46,4.80
2008,02,05,03,47,8.10
2008,02,05,03,48,6.40
2008,02,05,03,49,3.20
2008,02,05,03,50,4.80
2008,02,05,03,51,4.80
2008,02,05,03,52,4.80
2008,02,05,03,53,6.40
2008,02,05,03,54,4.80
2008,02,05,03,55,4.80
2008,02,05,03,56,4.80
2008,02,05,03,57,6.40
2008,02,05,03,58,8.10
2008,02,05,03,59,6.40
2008,02,05,04,00,6.40
2008,02,05,04,01,4.80
2008,02,05,04,02,3.20
2008,02,05,04,03,6.40
2008,02,05,04,04,6.40
2008,02,05,04,05,6.40
2008,02,05,04,06,8.10
2008,02,05,04,07,8.10
2008,02,05,04,08,6.40
2008,02,05,04,09,4.80
2008,02,05,04,10,3.20
2008,02,05,04,11,4.80
2008,02,05,04,12,4.80
2008,02,05,04,13,6.40
2008,02,05,04,14,4.80
2008,02,05,04,15,6.40
2008,02,05,04,16,8.10
2008,02,05,04,17,3.20
2008,02,05,04,18,4.80
2008,02,05,04,19,6.40
2008,02,05,04,20,6.40
2008,02,05,04,21,8.10
2008,02,05,04,22,6.40
2008,02,05,04,23,6.40
2008,02,05,04,24,8.10
2008,02,05,04,25,4.80
2008,02,05,04,26,0.00
2008,02,05,04,27,6.40
2008,02,05,04,28,4.80
2008,02,05,04,29,6.40
2008,02,05,04,30,9.60
2008,02,05,04,31,8.10
2008,02,05,04,32,6.40
2008,02,05,04,33,6.40
2008,02,05,04,34,4.80
2008,02,05,04,35,8.10
2008,02,05,04,36,4.80
2008,02,05,04,37,6.40
2008,02,05,04,38,4.80
2008,02,05,04,39,3.20
2008,02,05,04,40,3.20
2008,02,05,04,41,4.80
2008,02,05,04,42,4.80
2008,02,05,04,43,4.80
2008,02,05,04,44,4.80
2008,02,05,04,45,3.20
2008,02,05,04,46,4.80
2008,02,05,04,47,6.40
2008,02,05,04,48,6.40
2008,02,05,04,49,4.80
2008,02,05,04,50,4.80
2008,02,05,04,51,4.80
2008,02,05,04,52,3.20
2008,02,05,04,53,3.20
2008,02,05,04,54,3.20
2008,02,05,04,55,3.20
2008,02,05,04,56,4.80
2008,02,05,04,57,3.20
2008,02,05,04,58,1.60
2008,02,05,04,59,1.60
2008,02,05,05,00,3.20
2008,02,05,05,01,4.80
2008,02,05,05,02,6.40
2008,02,05,05,03,4.80
2008,02,05,05,04,3.20
2008,02,05,05,05,4.80
2008,02,05,05,06,3.20
2008,02,05,05,07,3.20
2008,02,05,05,08,3.20
2008,02,05,05,09,4.80
2008,02,05,05,10,8.10
2008,02,05,05,11,4.80
2008,02,05,05,12,8.10
2008,02,05,05,13,6.40
2008,02,05,05,14,8.10
2008,02,05,05,15,8.10
2008,02,05,05,16,4.80
2008,02,05,05,17,4.80
2008,02,05,05,18,6.40
2008,02,05,05,19,6.40
2008,02,05,05,20,4.80
2008,02,05,05,21,3.20
2008,02,05,05,22,3.20
2008,02,05,05,23,4.80
2008,02,05,05,24,4.80
2008,02,05,05,25,4.80
2008,02,05,05,26,6.40
2008,02,05,05,27,4.80
2008,02,05,05,28,4.80
2008,02,05,05,29,3.20
2008,02,05,05,30,3.20
2008,02,05,05,31,4.80
2008,02,05,05,32,3.20
2008,02,05,05,33,1.60
2008,02,05,05,34,0.00
2008,02,05,05,35,1.60
2008,02,05,05,36,3.20
2008,02,05,05,37,3.20
2008,02,05,05,38,1.60
2008,02,05,05,39,1.60
2008,02,05,05,40,3.20
2008,02,05,05,41,3.20
2008,02,05,05,42,3.20
2008,02,05,05,43,4.80
2008,02,05,05,44,3.20
2008,02,05,05,45,3.20
2008,02,05,05,46,3.20
2008,02,05,05,47,4.80
2008,02,05,05,48,3.20
2008,02,05,05,49,3.20
2008,02,05,05,50,3.20
2008,02,05,05,51,3.20
2008,02,05,05,52,3.20
2008,02,05,05,53,4.80
2008,02,05,05,54,0.00
2008,02,05,05,55,1.60
2008,02,05,05,56,0.00
2008,02,05,05,57,0.00
2008,02,05,05,58,3.20
2008,02,05,05,59,3.20
2008,02,05,06,00,3.20
2008,02,05,06,01,0.00
2008,02,05,06,02,4.80
2008,02,05,06,03,4.80
2008,02,05,06,04,3.20
2008,02,05,06,05,3.20
2008,02,05,06,06,8.10
2008,02,05,06,07,3.20
2008,02,05,06,08,4.80
2008,02,05,06,09,3.20
2008,02,05,06,10,3.20
2008,02,05,06,11,6.40
2008,02,05,06,12,3.20
2008,02,05,06,13,3.20
2008,02,05,06,14,3.20
2008,02,05,06,15,4.80
2008,02,05,06,16,3.20
2008,02,05,06,17,6.40
2008,02,05,06,18,6.40
2008,02,05,06,19,3.20
2008,02,05,06,20,1.60
2008,02,05,06,21,4.80
2008,02,05,06,22,4.80
2008,02,05,06,23,8.10
2008,02,05,06,24,3.20
2008,02,05,06,25,6.40
2008,02,05,06,26,6.40
2008,02,05,06,27,6.40
2008,02,05,06,28,3.20
2008,02,05,06,29,4.80
2008,02,05,06,30,3.20
2008,02,05,06,31,4.80
2008,02,05,06,32,3.20
2008,02,05,06,33,1.60
2008,02,05,06,34,0.00
2008,02,05,06,35,3.20
2008,02,05,06,36,3.20
2008,02,05,06,37,4.80
2008,02,05,06,38,1.60
2008,02,05,06,39,4.80
2008,02,05,06,40,4.80
2008,02,05,06,41,4.80
2008,02,05,06,42,4.80
2008,02,05,06,43,4.80
2008,02,05,06,44,4.80
2008,02,05,06,45,8.10
2008,02,05,06,46,6.40
2008,02,05,06,47,6.40
2008,02,05,06,48,6.40
2008,02,05,06,49,4.80
2008,02,05,06,50,6.40
2008,02,05,06,51,3.20
2008,02,05,06,52,4.80
2008,02,05,06,53,3.20
2008,02,05,06,54,3.20
2008,02,05,06,55,3.20
2008,02,05,06,56,6.40
2008,02,05,06,57,6.40
2008,02,05,06,58,3.20
2008,02,05,06,59,3.20
2008,02,05,07,00,6.40
2008,02,05,07,01,4.80
2008,02,05,07,02,4.80
2008,02,05,07,03,4.80
2008,02,05,07,04,3.20
2008,02,05,07,05,6.40
2008,02,05,07,06,6.40
2008,02,05,07,07,8.10
2008,02,05,07,08,6.40
2008,02,05,07,09,4.80
2008,02,05,07,10,3.20
2008,02,05,07,11,3.20
2008,02,05,07,12,4.80
2008,02,05,07,13,3.20
2008,02,05,07,14,4.80
2008,02,05,07,15,9.60
2008,02,05,07,16,6.40
2008,02,05,07,17,6.40
2008,02,05,07,18,4.80
2008,02,05,07,19,3.20
2008,02,05,07,20,3.20
2008,02,05,07,21,3.20
2008,02,05,07,22,4.80
2008,02,05,07,23,4.80
2008,02,05,07,24,4.80
2008,02,05,07,25,8.10
2008,02,05,07,26,4.80
2008,02,05,07,27,4.80
2008,02,05,07,28,3.20
2008,02,05,07,29,4.80
2008,02,05,07,30,1.60
2008,02,05,07,31,3.20
2008,02,05,07,32,3.20
2008,02,05,07,33,3.20
2008,02,05,07,34,6.40
2008,02,05,07,35,6.40
2008,02,05,07,36,9.60
2008,02,05,07,37,6.40
2008,02,05,07,38,3.20
2008,02,05,07,39,3.20
2008,02,05,07,40,4.80
2008,02,05,07,41,8.10
2008,02,05,07,42,8.10
2008,02,05,07,43,9.60
2008,02,05,07,44,9.60
2008,02,05,07,45,8.10
2008,02,05,07,46,9.60
2008,02,05,07,47,9.60
2008,02,05,07,48,8.10
2008,02,05,07,49,6.40
2008,02,05,07,50,4.80
2008,02,05,07,51,3.20
2008,02,05,07,52,1.60
2008,02,05,07,53,0.00
2008,02,05,07,54,3.20
2008,02,05,07,55,3.20
2008,02,05,07,56,3.20
2008,02,05,07,57,1.60
2008,02,05,07,58,1.60
2008,02,05,07,59,4.80
2008,02,05,08,00,6.40
2008,02,05,08,01,4.80
2008,02,05,08,02,6.40
2008,02,05,08,03,6.40
2008,02,05,08,04,8.10
2008,02,05,08,05,8.10
2008,02,05,08,06,3.20
2008,02,05,08,07,1.60
2008,02,05,08,08,4.80
2008,02,05,08,09,3.20
2008,02,05,08,10,3.20
2008,02,05,08,11,3.20
2008,02,05,08,12,3.20
2008,02,05,08,13,4.80
2008,02,05,08,14,1.60
2008,02,05,08,15,0.00
2008,02,05,08,16,0.00
2008,02,05,08,17,3.20
2008,02,05,08,18,4.80
2008,02,05,08,19,3.20
2008,02,05,08,20,1.60
2008,02,05,08,21,3.20
2008,02,05,08,22,3.20
2008,02,05,08,23,3.20
2008,02,05,08,24,3.20
2008,02,05,08,25,3.20
2008,02,05,08,26,0.00
2008,02,05,08,27,0.00
2008,02,05,08,28,1.60
2008,02,05,08,29,1.60
2008,02,05,08,30,1.60
2008,02,05,08,31,1.60
2008,02,05,08,32,3.20
2008,02,05,08,33,3.20
2008,02,05,08,34,3.20
2008,02,05,08,35,4.80
2008,02,05,08,36,3.20
2008,02,05,08,37,3.20
2008,02,05,08,38,4.80
2008,02,05,08,39,4.80
2008,02,05,08,40,4.80
2008,02,05,08,41,4.80
2008,02,05,08,42,3.20
2008,02,05,08,43,4.80
2008,02,05,08,44,6.40
2008,02,05,08,45,8.10
2008,02,05,08,46,8.10
2008,02,05,08,47,6.40
2008,02,05,08,48,4.80
2008,02,05,08,49,4.80
2008,02,05,08,50,3.20
2008,02,05,08,51,4.80
2008,02,05,08,52,3.20
2008,02,05,08,53,6.40
2008,02,05,08,54,6.40
2008,02,05,08,55,8.10
2008,02,05,08,56,11.30
2008,02,05,08,57,9.60
2008,02,05,08,58,9.60
2008,02,05,08,59,8.10
2008,02,05,09,00,6.40
2008,02,05,09,01,6.40
2008,02,05,09,02,3.20
2008,02,05,09,03,0.00
2008,02,05,09,04,0.00
2008,02,05,09,05,4.80
2008,02,05,09,06,4.80
2008,02,05,09,07,1.60
2008,02,05,09,08,6.40
2008,02,05,09,09,3.20
2008,02,05,09,10,4.80
2008,02,05,09,11,4.80
2008,02,05,09,12,8.10
2008,02,05,09,13,6.40
2008,02,05,09,14,1.60
2008,02,05,09,15,3.20
2008,02,05,09,16,3.20
2008,02,05,09,17,3.20
2008,02,05,09,18,4.80
2008,02,05,09,19,1.60
2008,02,05,09,20,1.60
2008,02,05,09,21,1.60
2008,02,05,09,22,0.00
2008,02,05,09,23,0.00
2008,02,05,09,24,3.20
2008,02,05,09,25,3.20
2008,02,05,09,26,0.00
2008,02,05,09,27,1.60
2008,02,05,09,28,3.20
2008,02,05,09,29,3.20
2008,02,05,09,30,0.00
2008,02,05,09,31,0.00
2008,02,05,09,32,0.00
2008,02,05,09,33,0.00
2008,02,05,09,34,1.60
2008,02,05,09,35,3.20
2008,02,05,09,36,4.80
2008,02,05,09,37,3.20
2008,02,05,09,38,3.20
2008,02,05,09,39,0.00
2008,02,05,09,40,3.20
2008,02,05,09,41,1.60
2008,02,05,09,42,1.60
2008,02,05,09,43,0.00
2008,02,05,09,44,0.00
2008,02,05,09,45,0.00
2008,02,05,09,46,0.00
2008,02,05,09,47,0.00
2008,02,05,09,48,0.00
2008,02,05,09,49,1.60
2008,02,05,09,50,3.20
2008,02,05,09,51,1.60
2008,02,05,09,52,1.60
2008,02,05,09,53,0.00
2008,02,05,09,54,1.60
2008,02,05,09,55,3.20
2008,02,05,09,56,0.00
2008,02,05,09,57,0.00
2008,02,05,09,58,0.00
2008,02,05,09,59,0.00
2008,02,05,10,00,0.00
2008,02,05,10,01,0.00
2008,02,05,10,02,0.00
2008,02,05,10,03,0.00
2008,02,05,10,04,0.00
2008,02,05,10,05,1.60
2008,02,05,10,06,0.00
2008,02,05,10,07,1.60
2008,02,05,10,08,0.00
2008,02,05,10,09,0.00
2008,02,05,10,10,0.00
2008,02,05,10,11,0.00
2008,02,05,10,12,1.60
2008,02,05,10,13,0.00
2008,02,05,10,14,0.00
2008,02,05,10,15,3.20
2008,02,05,10,16,0.00
2008,02,05,10,17,3.20
2008,02,05,10,18,1.60
2008,02,05,10,19,1.60
2008,02,05,10,20,0.00
2008,02,05,10,21,8.10
2008,02,05,10,22,4.80
2008,02,05,10,23,4.80
2008,02,05,10,24,4.80
2008,02,05,10,25,4.80
2008,02,05,10,26,4.80
2008,02,05,10,27,6.40
2008,02,05,10,28,8.10
2008,02,05,10,29,16.10
2008,02,05,10,30,20.90
2008,02,05,10,31,20.90
2008,02,05,10,32,17.70
2008,02,05,10,33,54.70
2008,02,05,10,34,40.20
2008,02,05,10,35,48.30
2008,02,05,10,36,45.10
2008,02,05,10,37,37.00
2008,02,05,10,38,45.10
2008,02,05,10,39,54.70
2008,02,05,10,40,53.10
2008,02,05,10,41,37.00
2008,02,05,10,42,33.80
2008,02,05,10,43,30.60
2008,02,05,10,44,27.40
2008,02,05,10,45,20.90
2008,02,05,10,46,27.40
2008,02,05,10,47,27.40
2008,02,05,10,48,30.60
2008,02,05,10,49,32.20
2008,02,05,10,50,33.80
2008,02,05,10,51,32.20
2008,02,05,10,52,22.50
2008,02,05,10,53,25.70
2008,02,05,10,54,32.20
2008,02,05,10,55,35.40
2008,02,05,10,56,37.00
2008,02,05,10,57,38.60
2008,02,05,10,58,22.50
2008,02,05,10,59,29.00
2008,02,05,11,00,22.50
2008,02,05,11,01,25.70
2008,02,05,11,02,14.50
2008,02,05,11,03,25.70
2008,02,05,11,04,19.30
2008,02,05,11,05,17.70
2008,02,05,11,06,22.50
2008,02,05,11,07,11.30
2008,02,05,11,08,25.70
2008,02,05,11,09,16.10
2008,02,05,11,10,22.50
2008,02,05,11,11,25.70
2008,02,05,11,12,22.50
2008,02,05,11,13,14.50
2008,02,05,11,14,14.50
2008,02,05,11,15,25.70
2008,02,05,11,16,16.10
2008,02,05,11,17,20.90
2008,02,05,11,18,25.70
2008,02,05,11,19,19.30
2008,02,05,11,20,29.00
2008,02,05,11,21,27.40
2008,02,05,11,22,19.30
2008,02,05,11,23,22.50
2008,02,05,11,24,17.70
2008,02,05,11,25,25.70
2008,02,05,11,26,20.90
2008,02,05,11,27,41.80
2008,02,05,11,28,41.80
2008,02,05,11,29,38.60
2008,02,05,11,30,29.00
2008,02,05,11,31,29.00
2008,02,05,11,32,25.70
2008,02,05,11,33,25.70
2008,02,05,11,34,32.20
2008,02,05,11,35,51.50
2008,02,05,11,36,38.60
2008,02,05,11,37,40.20
2008,02,05,11,38,35.40
2008,02,05,11,39,38.60
2008,02,05,11,40,45.10
2008,02,05,11,41,41.80
2008,02,05,11,42,43.50
2008,02,05,11,43,37.00
2008,02,05,11,44,46.70
2008,02,05,11,45,53.10
2008,02,05,11,46,27.40
2008,02,05,11,47,53.10
2008,02,05,11,48,40.20
2008,02,05,11,49,48.30
2008,02,05,11,50,37.00
2008,02,05,11,51,40.20
2008,02,05,11,52,38.60
2008,02,05,11,53,40.20
2008,02,05,11,54,40.20
2008,02,05,11,55,43.50
2008,02,05,11,56,41.80
2008,02,05,11,57,29.00
2008,02,05,11,58,29.00
2008,02,05,11,59,29.00
2008,02,05,12,00,45.10
2008,02,05,12,01,33.80
2008,02,05,12,02,17.70
2008,02,05,12,03,20.90
2008,02,05,12,04,29.00
2008,02,05,12,05,33.80
2008,02,05,12,06,25.70
2008,02,05,12,07,25.70
2008,02,05,12,08,35.40
2008,02,05,12,09,33.80
2008,02,05,12,10,25.70
2008,02,05,12,11,30.60
2008,02,05,12,12,32.20
2008,02,05,12,13,27.40
2008,02,05,12,14,22.50
2008,02,05,12,15,22.50
2008,02,05,12,16,49.90
2008,02,05,12,17,54.70
2008,02,05,12,18,40.20
2008,02,05,12,19,49.90
2008,02,05,12,20,46.70
2008,02,05,12,21,38.60
2008,02,05,12,22,46.70
2008,02,05,12,23,48.30
2008,02,05,12,24,48.30
2008,02,05,12,25,30.60
2008,02,05,12,26,38.60
2008,02,05,12,27,45.10
2008,02,05,12,28,41.80
2008,02,05,12,29,43.50
2008,02,05,12,30,43.50
2008,02,05,12,31,48.30
2008,02,05,12,32,64.40
2008,02,05,12,33,53.10
2008,02,05,12,34,43.50
2008,02,05,12,35,49.90
2008,02,05,12,36,37.00
2008,02,05,12,37,37.00
2008,02,05,12,38,41.80
2008,02,05,12,39,38.60
2008,02,05,12,40,35.40
2008,02,05,12,41,27.40
2008,02,05,12,42,45.10
2008,02,05,12,43,43.50
2008,02,05,12,44,24.20
2008,02,05,12,45,35.40
2008,02,05,12,46,35.40
2008,02,05,12,47,45.10
2008,02,05,12,48,45.10
2008,02,05,12,49,40.20
2008,02,05,12,50,33.80
2008,02,05,12,51,38.60
2008,02,05,12,52,64.40
2008,02,05,12,53,57.90
2008,02,05,12,54,51.50
2008,02,05,12,55,54.70
2008,02,05,12,56,57.90
2008,02,05,12,57,64.40
2008,02,05,12,58,61.20
2008,02,05,12,59,43.50
2008,02,05,13,00,66.00
2008,02,05,13,01,46.70
2008,02,05,13,02,45.10
2008,02,05,13,03,29.00
2008,02,05,13,04,32.20
2008,02,05,13,05,33.80
2008,02,05,13,06,29.00
2008,02,05,13,07,17.70
2008,02,05,13,08,30.60
2008,02,05,13,09,25.70
2008,02,05,13,10,25.70
2008,02,05,13,11,22.50
2008,02,05,13,12,33.80
2008,02,05,13,13,38.60
2008,02,05,13,14,32.20
2008,02,05,13,15,35.40
2008,02,05,13,16,33.80
2008,02,05,13,17,27.40
2008,02,05,13,18,38.60
2008,02,05,13,19,40.20
2008,02,05,13,20,43.50
2008,02,05,13,21,33.80
2008,02,05,13,22,35.40
2008,02,05,13,23,53.10
2008,02,05,13,24,53.10
2008,02,05,13,25,38.60
2008,02,05,13,26,38.60
2008,02,05,13,27,46.70
2008,02,05,13,28,48.30
2008,02,05,13,29,40.20
2008,02,05,13,30,38.60
2008,02,05,13,31,37.00
2008,02,05,13,32,40.20
2008,02,05,13,33,35.40
2008,02,05,13,34,46.70
2008,02,05,13,35,38.60
2008,02,05,13,36,38.60
2008,02,05,13,37,41.80
2008,02,05,13,38,32.20
2008,02,05,13,39,37.00
2008,02,05,13,40,56.30
2008,02,05,13,41,53.10
2008,02,05,13,42,48.30
2008,02,05,13,43,29.00
2008,02,05,13,44,37.00
2008,02,05,13,45,30.60
2008,02,05,13,46,45.10
2008,02,05,13,47,32.20
2008,02,05,13,48,46.70
2008,02,05,13,49,43.50
2008,02,05,13,50,40.20
2008,02,05,13,51,38.60
2008,02,05,13,52,35.40
2008,02,05,13,53,32.20
2008,02,05,13,54,33.80
2008,02,05,13,55,32.20
2008,02,05,13,56,25.70
2008,02,05,13,57,40.20
2008,02,05,13,58,37.00
2008,02,05,13,59,64.40
2008,02,05,14,00,35.40
2008,02,05,14,01,30.60
2008,02,05,14,02,25.70
2008,02,05,14,03,35.40
2008,02,05,14,04,30.60
2008,02,05,14,05,53.10
2008,02,05,14,06,53.10
2008,02,05,14,07,70.80
2008,02,05,14,08,53.10
2008,02,05,14,09,62.70
2008,02,05,14,10,62.70
2008,02,05,14,11,64.40
2008,02,05,14,12,67.60
2008,02,05,14,13,56.30
2008,02,05,14,14,37.00
2008,02,05,14,15,43.50
2008,02,05,14,16,51.50
2008,02,05,14,17,38.60
2008,02,05,14,18,29.00
2008,02,05,14,19,37.00
2008,02,05,14,20,45.10
2008,02,05,14,21,25.70
2008,02,05,14,22,35.40
2008,02,05,14,23,49.90
2008,02,05,14,24,32.20
2008,02,05,14,25,33.80
2008,02,05,14,26,43.50
2008,02,05,14,27,37.00
2008,02,05,14,28,38.60
2008,02,05,14,29,33.80
2008,02,05,14,30,37.00
2008,02,05,14,31,53.10
2008,02,05,14,32,46.70
2008,02,05,14,33,45.10
2008,02,05,14,34,48.30
2008,02,05,14,35,33.80
2008,02,05,14,36,35.40
2008,02,05,14,37,35.40
2008,02,05,14,38,29.00
2008,02,05,14,39,40.20
2008,02,05,14,40,40.20
2008,02,05,14,41,35.40
2008,02,05,14,42,29.00
2008,02,05,14,43,27.40
2008,02,05,14,44,27.40
2008,02,05,14,45,27.40
2008,02,05,14,46,37.00
2008,02,05,14,47,27.40
2008,02,05,14,48,37.00
2008,02,05,14,49,41.80
2008,02,05,14,50,46.70
2008,02,05,14,51,38.60
2008,02,05,14,52,24.20
2008,02,05,14,53,32.20
2008,02,05,14,54,25.70
2008,02,05,14,55,43.50
2008,02,05,14,56,40.20
2008,02,05,14,57,27.40
2008,02,05,14,58,43.50
2008,02,05,14,59,30.60
2008,02,05,15,00,22.50
2008,02,05,15,01,27.40
2008,02,05,15,02,35.40
2008,02,05,15,03,53.10
2008,02,05,15,04,46.70
2008,02,05,15,05,53.10
2008,02,05,15,06,49.90
2008,02,05,15,07,43.50
2008,02,05,15,08,38.60
2008,02,05,15,09,46.70
2008,02,05,15,10,35.40
2008,02,05,15,11,46.70
2008,02,05,15,12,37.00
2008,02,05,15,13,32.20
2008,02,05,15,14,32.20
2008,02,05,15,15,49.90
2008,02,05,15,16,43.50
2008,02,05,15,17,61.20
2008,02,05,15,18,59.50
2008,02,05,15,19,64.40
2008,02,05,15,20,37.00
2008,02,05,15,21,32.20
2008,02,05,15,22,25.70
2008,02,05,15,23,41.80
2008,02,05,15,24,32.20
2008,02,05,15,25,32.20
2008,02,05,15,26,30.60
2008,02,05,15,27,29.00
2008,02,05,15,28,38.60
2008,02,05,15,29,45.10
2008,02,05,15,30,54.70
2008,02,05,15,31,57.90
2008,02,05,15,32,49.90
2008,02,05,15,33,62.70
2008,02,05,15,34,43.50
2008,02,05,15,35,38.60
2008,02,05,15,36,35.40
2008,02,05,15,37,48.30
2008,02,05,15,38,56.30
2008,02,05,15,39,45.10
2008,02,05,15,40,53.10
2008,02,05,15,41,38.60
2008,02,05,15,42,41.80
2008,02,05,15,43,43.50
2008,02,05,15,44,33.80
2008,02,05,15,45,43.50
2008,02,05,15,46,32.20
2008,02,05,15,47,33.80
2008,02,05,15,48,30.60
2008,02,05,15,49,25.70
2008,02,05,15,50,38.60
2008,02,05,15,51,30.60
2008,02,05,15,52,22.50
2008,02,05,15,53,32.20
2008,02,05,15,54,17.70
2008,02,05,15,55,33.80
2008,02,05,15,56,33.80
2008,02,05,15,57,29.00
2008,02,05,15,58,35.40
2008,02,05,15,59,37.00
2008,02,05,16,00,27.40
2008,02,05,16,01,25.70
2008,02,05,16,02,29.00
2008,02,05,16,03,22.50
2008,02,05,16,04,25.70
2008,02,05,16,05,29.00
2008,02,05,16,06,25.70
2008,02,05,16,07,32.20
2008,02,05,16,08,24.20
2008,02,05,16,09,33.80
2008,02,05,16,10,54.70
2008,02,05,16,11,56.30
2008,02,05,16,12,46.70
2008,02,05,16,13,41.80
2008,02,05,16,14,41.80
2008,02,05,16,15,41.80
2008,02,05,16,16,46.70
2008,02,05,16,17,54.70
2008,02,05,16,18,41.80
2008,02,05,16,19,33.80
2008,02,05,16,20,22.50
2008,02,05,16,21,27.40
2008,02,05,16,22,29.00
2008,02,05,16,23,22.50
2008,02,05,16,24,43.50
2008,02,05,16,25,30.60
2008,02,05,16,26,25.70
2008,02,05,16,27,16.10
2008,02,05,16,28,41.80
2008,02,05,16,29,37.00
2008,02,05,16,30,32.20
2008,02,05,16,31,27.40
2008,02,05,16,32,27.40
2008,02,05,16,33,40.20
2008,02,05,16,34,41.80
2008,02,05,16,35,35.40
2008,02,05,16,36,29.00
2008,02,05,16,37,29.00
2008,02,05,16,38,30.60
2008,02,05,16,39,32.20
2008,02,05,16,40,38.60
2008,02,05,16,41,38.60
2008,02,05,16,42,24.20
2008,02,05,16,43,37.00
2008,02,05,16,44,33.80
2008,02,05,16,45,37.00
2008,02,05,16,46,41.80
2008,02,05,16,47,40.20
2008,02,05,16,48,40.20
2008,02,05,16,49,49.90
2008,02,05,16,50,40.20
2008,02,05,16,51,41.80
2008,02,05,16,52,40.20
2008,02,05,16,53,33.80
2008,02,05,16,54,38.60
2008,02,05,16,55,22.50
2008,02,05,16,56,29.00
2008,02,05,16,57,35.40
2008,02,05,16,58,43.50
2008,02,05,16,59,40.20
2008,02,05,17,00,40.20
2008,02,05,17,01,49.90
2008,02,05,17,02,48.30
2008,02,05,17,03,41.80
2008,02,05,17,04,41.80
2008,02,05,17,05,37.00
2008,02,05,17,06,35.40
2008,02,05,17,07,30.60
2008,02,05,17,08,45.10
2008,02,05,17,09,33.80
2008,02,05,17,10,37.00
2008,02,05,17,11,45.10
2008,02,05,17,12,37.00
2008,02,05,17,13,48.30
2008,02,05,17,14,45.10
2008,02,05,17,15,40.20
2008,02,05,17,16,43.50
2008,02,05,17,17,41.80
2008,02,05,17,18,30.60
2008,02,05,17,19,33.80
2008,02,05,17,20,53.10
2008,02,05,17,21,43.50
2008,02,05,17,22,46.70
2008,02,05,17,23,33.80
2008,02,05,17,24,46.70
2008,02,05,17,25,33.80
2008,02,05,17,26,25.70
2008,02,05,17,27,30.60
2008,02,05,17,28,37.00
2008,02,05,17,29,33.80
2008,02,05,17,30,41.80
2008,02,05,17,31,32.20
2008,02,05,17,32,53.10
2008,02,05,17,33,32.20
2008,02,05,17,34,45.10
2008,02,05,17,35,43.50
2008,02,05,17,36,35.40
2008,02,05,17,37,32.20
2008,02,05,17,38,30.60
2008,02,05,17,39,46.70
2008,02,05,17,40,45.10
2008,02,05,17,41,27.40
2008,02,05,17,42,43.50
2008,02,05,17,43,45.10
2008,02,05,17,44,37.00
2008,02,05,17,45,37.00
2008,02,05,17,46,40.20